| time (UTC) | temp F | wind direction | speed MPH | gust MPH | rain 1hr in | rain 24hr in | rain mn in | humidity % | barometer mb |
| 20260901190112 | 74 | 0 | 0.0 | 1.0 | 0.00 | 0.00 | 0.00 | 55 | 1017.5 |
| 20260901185549 | 74 | 0 | 0.0 | 6.0 | 0.00 | 0.00 | 0.00 | 54 | 1017.6 |
| 20260901185051 | 74 | 0 | 0.0 | 6.0 | 0.00 | 0.00 | 0.00 | 55 | 1017.6 |
| 20260901184559 | 74 | 153 | 0.0 | 6.0 | 0.00 | 0.00 | 0.00 | 55 | 1017.6 |
| 20260901184053 | 74 | 0 | 0.0 | 6.0 | 0.00 | 0.00 | 0.00 | 56 | 1017.6 |
| 20260901183551 | 74 | 131 | 0.0 | 4.0 | 0.00 | 0.00 | 0.00 | 56 | 1017.6 |
| 20260901183056 | 74 | 0 | 0.0 | 4.0 | 0.00 | 0.00 | 0.00 | 56 | 1017.5 |
| 20260901182552 | 74 | 0 | 0.0 | 5.0 | 0.00 | 0.00 | 0.00 | 56 | 1017.8 |
| 20260901182049 | 74 | 0 | 0.0 | 5.0 | 0.00 | 0.00 | 0.00 | 56 | 1017.6 |
| 20260901181605 | 74 | 114 | 0.0 | 7.0 | 0.00 | 0.00 | 0.00 | 56 | 1017.6 |
| 20260901181051 | 73 | 0 | 0.0 | 7.0 | 0.00 | 0.00 | 0.00 | 57 | 1017.5 |
| 20260901180552 | 73 | 29 | 0.0 | 5.0 | 0.00 | 0.00 | 0.00 | 57 | 1017.5 |
| 20260901180100 | 73 | 0 | 0.0 | 3.0 | 0.00 | 0.00 | 0.00 | 59 | 1017.7 |
| 20260901175552 | 72 | 0 | 0.0 | 3.0 | 0.00 | 0.00 | 0.00 | 60 | 1017.6 |
| 20260901175051 | 72 | 0 | 0.0 | 0.0 | 0.00 | 0.00 | 0.00 | 62 | 1017.6 |
| 20260901174603 | 72 | 0 | 0.0 | 0.0 | 0.00 | 0.00 | 0.00 | 60 | 1017.5 |
| 20260901174052 | 72 | 0 | 0.0 | 4.0 | 0.00 | 0.00 | 0.00 | 59 | 1017.6 |
| 20260901173555 | 72 | 0 | 0.0 | 4.0 | 0.00 | 0.00 | 0.00 | 59 | 1017.4 |
| 20260901173104 | 73 | 137 | 1.0 | 4.0 | 0.00 | 0.00 | 0.00 | 59 | 1017.4 |
| 20260901172552 | 73 | 0 | 0.0 | 4.0 | 0.00 | 0.00 | 0.00 | 60 | 1017.4 |
| 20260901172052 | 72 | 0 | 0.0 | 8.0 | 0.00 | 0.00 | 0.00 | 58 | 1017.3 |
| 20260901171607 | 72 | 0 | 0.0 | 8.0 | 0.00 | 0.00 | 0.00 | 60 | 1017.2 |
| 20260901171053 | 72 | 0 | 1.0 | 8.0 | 0.00 | 0.00 | 0.00 | 57 | 1017.2 |
| 20260901170551 | 72 | 0 | 0.0 | 7.0 | 0.00 | 0.00 | 0.00 | 59 | 1017.2 |
| 20260901170105 | 71 | 0 | 0.0 | 5.0 | 0.00 | 0.00 | 0.00 | 60 | 1017.2 |
| 20260901165633 | 72 | 0 | 1.0 | 9.0 | 0.00 | 0.00 | 0.00 | 59 | 1017.2 |
| 20260901165052 | 72 | 0 | 1.0 | 9.0 | 0.00 | 0.00 | 0.00 | 59 | 1017.3 |
| 20260901164601 | 72 | 0 | 1.0 | 8.0 | 0.00 | 0.00 | 0.00 | 59 | 1017.3 |
| 20260901164052 | 71 | 0 | 0.0 | 6.0 | 0.00 | 0.00 | 0.00 | 61 | 1017.3 |
| 20260901163554 | 71 | 82 | 0.0 | 6.0 | 0.00 | 0.00 | 0.00 | 59 | 1017.5 |
| 20260901163102 | 71 | 32 | 0.0 | 8.0 | 0.00 | 0.00 | 0.00 | 60 | 1017.4 |
| 20260901162552 | 70 | 0 | 1.0 | 8.0 | 0.00 | 0.00 | 0.00 | 59 | 1017.5 |
| 20260901162049 | 71 | 153 | 2.0 | 8.0 | 0.00 | 0.00 | 0.00 | 57 | 1017.8 |
| 20260901161600 | 71 | 0 | 0.0 | 0.0 | 0.00 | 0.00 | 0.00 | 61 | 1017.9 |
| 20260901161051 | 70 | 0 | 0.0 | 6.0 | 0.00 | 0.00 | 0.00 | 60 | 1017.9 |
| 20260901160555 | 70 | 0 | 0.0 | 6.0 | 0.00 | 0.00 | 0.00 | 61 | 1017.9 |
| 20260901160113 | 70 | 0 | 0.0 | 6.0 | 0.00 | 0.00 | 0.00 | 61 | 1017.8 |
| 20260901155552 | 70 | 0 | 0.0 | 0.0 | 0.00 | 0.00 | 0.00 | 63 | 1017.9 |
| 20260901155050 | 69 | 0 | 0.0 | 0.0 | 0.00 | 0.00 | 0.00 | 68 | 1017.9 |
| 20260901154606 | 69 | 0 | 0.0 | 0.0 | 0.00 | 0.00 | 0.00 | 73 | 1017.9 |
| 20260901154051 | 69 | 0 | 0.0 | 0.0 | 0.00 | 0.00 | 0.00 | 71 | 1018.0 |
| 20260901153551 | 67 | 0 | 0.0 | 0.0 | 0.00 | 0.00 | 0.00 | 74 | 1018.0 |
| 20260901153103 | 67 | 0 | 0.0 | 0.0 | 0.00 | 0.00 | 0.00 | 74 | 1018.0 |
| 20260901152548 | 67 | 0 | 0.0 | 2.0 | 0.00 | 0.00 | 0.00 | 72 | 1017.8 |
| 20260901152048 | 67 | 0 | 0.0 | 2.0 | 0.00 | 0.00 | 0.00 | 73 | 1017.9 |
| 20260901151608 | 67 | 0 | 0.0 | 2.0 | 0.00 | 0.00 | 0.00 | 73 | 1018.0 |
| 20260901151052 | 66 | 0 | 0.0 | 0.0 | 0.00 | 0.00 | 0.00 | 77 | 1018.0 |
| 20260901150551 | 65 | 0 | 0.0 | 0.0 | 0.00 | 0.00 | 0.00 | 77 | 1018.0 |
| 20260901150105 | 65 | 0 | 0.0 | 0.0 | 0.00 | 0.00 | 0.00 | 78 | 1018.3 |
| 20260901145552 | 64 | 0 | 0.0 | 0.0 | 0.00 | 0.00 | 0.00 | 80 | 1018.3 |
| 20260901145052 | 64 | 0 | 0.0 | 1.0 | 0.00 | 0.00 | 0.00 | 80 | 1018.4 |
| 20260901144603 | 64 | 0 | 0.0 | 3.0 | 0.00 | 0.00 | 0.00 | 80 | 1018.5 |
| 20260901144051 | 64 | 256 | 0.0 | 3.0 | 0.00 | 0.00 | 0.00 | 83 | 1018.3 |
| 20260901143551 | 64 | 0 | 0.0 | 0.0 | 0.00 | 0.00 | 0.00 | 85 | 1018.3 |
| 20260901143113 | 62 | 0 | 0.0 | 0.0 | 0.00 | 0.00 | 0.00 | 85 | 1018.2 |
| 20260901142553 | 61 | 0 | 0.0 | 0.0 | 0.00 | 0.00 | 0.00 | 89 | 1018.0 |
| 20260901142051 | 60 | 0 | 0.0 | 0.0 | 0.00 | 0.00 | 0.00 | 89 | 1018.1 |
| 20260901141607 | 59 | 0 | 0.0 | 0.0 | 0.00 | 0.00 | 0.00 | 89 | 1017.9 |
| 20260901141051 | 59 | 0 | 0.0 | 0.0 | 0.00 | 0.00 | 0.00 | 90 | 1017.8 |
| 20260901140551 | 59 | 0 | 0.0 | 0.0 | 0.00 | 0.00 | 0.00 | 91 | 1017.8 |
| 20260901140107 | 59 | 0 | 0.0 | 0.0 | 0.00 | 0.00 | 0.00 | 91 | 1018.1 |
| 20260901135555 | 58 | 0 | 0.0 | 0.0 | 0.00 | 0.00 | 0.00 | 92 | 1018.2 |
| 20260901135052 | 58 | 0 | 0.0 | 0.0 | 0.00 | 0.00 | 0.00 | 92 | 1018.1 |
| 20260901134600 | 58 | 0 | 0.0 | 0.0 | 0.00 | 0.00 | 0.00 | 92 | 1018.1 |
| 20260901134053 | 58 | 0 | 0.0 | 0.0 | 0.00 | 0.00 | 0.00 | 93 | 1018.1 |
| 20260901133552 | 57 | 0 | 0.0 | 0.0 | 0.00 | 0.00 | 0.00 | 93 | 1018.2 |
| 20260901133100 | 57 | 0 | 0.0 | 0.0 | 0.00 | 0.00 | 0.00 | 94 | 1018.3 |
| 20260901132552 | 57 | 0 | 0.0 | 0.0 | 0.00 | 0.00 | 0.00 | 94 | 1018.6 |
| 20260901132052 | 57 | 0 | 0.0 | 0.0 | 0.00 | 0.00 | 0.00 | 94 | 1018.5 |
| 20260901131605 | 56 | 0 | 0.0 | 0.0 | 0.00 | 0.00 | 0.00 | 95 | 1018.6 |
| 20260901131051 | 56 | 0 | 0.0 | 0.0 | 0.00 | 0.00 | 0.00 | 95 | 1018.6 |
| 20260901130552 | 56 | 0 | 0.0 | 0.0 | 0.00 | 0.00 | 0.00 | 95 | 1018.7 |
| 20260901130100 | 56 | 0 | 0.0 | 0.0 | 0.00 | 0.00 | 0.00 | 95 | 1018.7 |
| 20260901125549 | 56 | 0 | 0.0 | 0.0 | 0.00 | 0.00 | 0.00 | 95 | 1018.9 |
| 20260901125052 | 55 | 0 | 0.0 | 0.0 | 0.00 | 0.00 | 0.00 | 95 | 1018.7 |
| 20260901124607 | 55 | 0 | 0.0 | 0.0 | 0.00 | 0.00 | 0.00 | 95 | 1018.7 |
| 20260901124051 | 55 | 0 | 0.0 | 0.0 | 0.00 | 0.00 | 0.00 | 95 | 1018.7 |
| 20260901123551 | 55 | 0 | 0.0 | 0.0 | 0.00 | 0.00 | 0.00 | 95 | 1018.7 |
| 20260901123121 | 55 | 0 | 0.0 | 0.0 | 0.00 | 0.00 | 0.00 | 95 | 1018.8 |
| 20260901122551 | 55 | 0 | 0.0 | 0.0 | 0.00 | 0.00 | 0.00 | 95 | 1018.7 |
| 20260901122051 | 55 | 0 | 0.0 | 0.0 | 0.00 | 0.00 | 0.00 | 95 | 1018.6 |
| 20260901121609 | 55 | 0 | 0.0 | 0.0 | 0.00 | 0.00 | 0.00 | 95 | 1018.8 |
| 20260901121051 | 55 | 0 | 0.0 | 0.0 | 0.00 | 0.00 | 0.00 | 96 | 1018.8 |
| 20260901120552 | 54 | 0 | 0.0 | 0.0 | 0.00 | 0.00 | 0.00 | 96 | 1018.7 |
| 20260901120105 | 54 | 0 | 0.0 | 0.0 | 0.00 | 0.00 | 0.00 | 96 | 1018.8 |
| 20260901115718 | 54 | 0 | 0.0 | 0.0 | 0.00 | 0.00 | 0.00 | 96 | 1018.9 |
| 20260901115052 | 54 | 0 | 0.0 | 0.0 | 0.00 | 0.00 | 0.00 | 95 | 1018.8 |
| 20260901114602 | 54 | 0 | 0.0 | 0.0 | 0.00 | 0.00 | 0.00 | 95 | 1018.6 |
| 20260901114051 | 54 | 0 | 0.0 | 0.0 | 0.00 | 0.00 | 0.00 | 95 | 1018.6 |
| 20260901113551 | 54 | 0 | 0.0 | 0.0 | 0.00 | 0.00 | 0.00 | 96 | 1018.6 |
| 20260901113107 | 54 | 0 | 0.0 | 0.0 | 0.00 | 0.00 | 0.00 | 96 | 1018.6 |
| 20260901112551 | 54 | 0 | 0.0 | 0.0 | 0.00 | 0.00 | 0.00 | 96 | 1018.1 |
| 20260901112051 | 54 | 0 | 0.0 | 0.0 | 0.00 | 0.00 | 0.00 | 96 | 1018.4 |
| 20260901111605 | 54 | 0 | 0.0 | 0.0 | 0.00 | 0.00 | 0.00 | 96 | 1018.5 |
| 20260901111054 | 54 | 0 | 0.0 | 0.0 | 0.00 | 0.00 | 0.00 | 96 | 1018.6 |
| 20260901110551 | 54 | 0 | 0.0 | 0.0 | 0.00 | 0.00 | 0.00 | 95 | 1018.3 |
| 20260901110109 | 54 | 0 | 0.0 | 0.0 | 0.00 | 0.00 | 0.00 | 95 | 1018.2 |
| 20260901105550 | 54 | 0 | 0.0 | 0.0 | 0.00 | 0.00 | 0.00 | 95 | 1018.4 |
| 20260901105050 | 54 | 0 | 0.0 | 0.0 | 0.00 | 0.00 | 0.00 | 95 | 1018.0 |
| 20260901104601 | 53 | 0 | 0.0 | 0.0 | 0.00 | 0.00 | 0.00 | 95 | 1017.8 |
| 20260901104051 | 53 | 0 | 0.0 | 0.0 | 0.00 | 0.00 | 0.00 | 95 | 1017.9 |
| 20260901103551 | 53 | 0 | 0.0 | 0.0 | 0.00 | 0.00 | 0.00 | 95 | 1018.0 |
| 20260901103113 | 53 | 0 | 0.0 | 0.0 | 0.00 | 0.00 | 0.00 | 95 | 1017.8 |
| 20260901102551 | 53 | 0 | 0.0 | 0.0 | 0.00 | 0.00 | 0.00 | 95 | 1017.6 |
| 20260901102052 | 53 | 0 | 0.0 | 0.0 | 0.00 | 0.00 | 0.00 | 95 | 1017.8 |
| 20260901101600 | 53 | 0 | 0.0 | 0.0 | 0.00 | 0.00 | 0.00 | 96 | 1017.8 |
| 20260901101049 | 53 | 0 | 0.0 | 0.0 | 0.00 | 0.00 | 0.00 | 96 | 1017.6 |
| 20260901100551 | 53 | 0 | 0.0 | 0.0 | 0.00 | 0.00 | 0.00 | 96 | 1017.6 |
| 20260901100105 | 53 | 0 | 0.0 | 0.0 | 0.00 | 0.00 | 0.00 | 96 | 1017.7 |
| 20260901095551 | 53 | 0 | 0.0 | 0.0 | 0.00 | 0.00 | 0.00 | 96 | 1017.7 |
| 20260901095051 | 53 | 0 | 0.0 | 0.0 | 0.00 | 0.00 | 0.00 | 96 | 1017.8 |
| 20260901094559 | 53 | 0 | 0.0 | 0.0 | 0.00 | 0.00 | 0.00 | 96 | 1017.7 |
| 20260901094050 | 53 | 0 | 0.0 | 0.0 | 0.00 | 0.00 | 0.00 | 95 | 1017.6 |
| 20260901093550 | 53 | 0 | 0.0 | 0.0 | 0.00 | 0.00 | 0.00 | 95 | 1017.6 |
| 20260901093110 | 53 | 0 | 0.0 | 0.0 | 0.00 | 0.00 | 0.00 | 95 | 1017.7 |
| 20260901092551 | 53 | 0 | 0.0 | 0.0 | 0.00 | 0.00 | 0.00 | 95 | 1017.5 |
| 20260901092052 | 53 | 0 | 0.0 | 0.0 | 0.00 | 0.00 | 0.00 | 95 | 1017.6 |
| 20260901091613 | 53 | 0 | 0.0 | 0.0 | 0.00 | 0.00 | 0.00 | 95 | 1017.5 |
| 20260901091051 | 53 | 0 | 0.0 | 0.0 | 0.00 | 0.00 | 0.00 | 95 | 1017.6 |
| 20260901090552 | 53 | 0 | 0.0 | 0.0 | 0.00 | 0.00 | 0.00 | 95 | 1017.4 |
| 20260901090055 | 53 | 0 | 0.0 | 0.0 | 0.00 | 0.00 | 0.00 | 95 | 1017.6 |
| 20260901085550 | 53 | 0 | 0.0 | 0.0 | 0.00 | 0.01 | 0.00 | 95 | 1017.8 |
| 20260901085051 | 53 | 0 | 0.0 | 0.0 | 0.00 | 0.01 | 0.00 | 95 | 1018.0 |
| 20260901084603 | 52 | 0 | 0.0 | 0.0 | 0.00 | 0.01 | 0.00 | 95 | 1017.9 |
| 20260901084051 | 52 | 0 | 0.0 | 0.0 | 0.00 | 0.01 | 0.00 | 95 | 1018.0 |
| 20260901083552 | 52 | 0 | 0.0 | 0.0 | 0.00 | 0.01 | 0.00 | 95 | 1017.9 |
| 20260901083102 | 52 | 0 | 0.0 | 0.0 | 0.00 | 0.01 | 0.00 | 95 | 1017.8 |
| 20260901082550 | 52 | 0 | 0.0 | 0.0 | 0.00 | 0.01 | 0.00 | 95 | 1017.7 |
| 20260901082051 | 52 | 0 | 0.0 | 0.0 | 0.00 | 0.01 | 0.00 | 95 | 1017.6 |
| 20260901081555 | 52 | 0 | 0.0 | 0.0 | 0.00 | 0.01 | 0.00 | 95 | 1017.6 |
| 20260901081048 | 52 | 0 | 0.0 | 0.0 | 0.00 | 0.01 | 0.00 | 95 | 1017.6 |
| 20260901080551 | 52 | 0 | 0.0 | 0.0 | 0.00 | 0.01 | 0.00 | 95 | 1017.7 |
| 20260901080101 | 52 | 0 | 0.0 | 0.0 | 0.00 | 0.01 | 0.00 | 95 | 1017.8 |
| 20260901075551 | 52 | 0 | 0.0 | 0.0 | 0.00 | 0.01 | 0.00 | 95 | 1017.9 |
| 20260901075053 | 52 | 0 | 0.0 | 0.0 | 0.00 | 0.01 | 0.00 | 95 | 1017.7 |
| 20260901074603 | 52 | 0 | 0.0 | 0.0 | 0.00 | 0.01 | 0.00 | 95 | 1017.8 |
| 20260901074050 | 52 | 0 | 0.0 | 0.0 | 0.00 | 0.01 | 0.00 | 95 | 1018.0 |
| 20260901073551 | 52 | 0 | 0.0 | 0.0 | 0.00 | 0.01 | 0.00 | 95 | 1017.9 |
| 20260901073059 | 52 | 0 | 0.0 | 0.0 | 0.00 | 0.01 | 0.00 | 94 | 1018.0 |
| 20260901072552 | 53 | 0 | 0.0 | 0.0 | 0.00 | 0.01 | 0.00 | 95 | 1018.0 |
| 20260901072050 | 53 | 0 | 0.0 | 0.0 | 0.00 | 0.01 | 0.00 | 95 | 1017.9 |
| 20260901071601 | 53 | 0 | 0.0 | 0.0 | 0.00 | 0.01 | 0.00 | 94 | 1017.8 |
| 20260901071050 | 52 | 0 | 0.0 | 0.0 | 0.00 | 0.01 | 0.00 | 94 | 1018.0 |
| 20260901070550 | 52 | 0 | 0.0 | 0.0 | 0.00 | 0.01 | 0.00 | 94 | 1018.1 |
| 20260901070109 | 53 | 0 | 0.0 | 0.0 | 0.00 | 0.01 | 0.00 | 94 | 1018.1 |
| 20260901065552 | 53 | 0 | 0.0 | 0.0 | 0.00 | 0.01 | 0.00 | 94 | 1018.0 |
| 20260901065051 | 53 | 0 | 0.0 | 0.0 | 0.00 | 0.01 | 0.00 | 94 | 1017.9 |
| 20260901064559 | 53 | 0 | 0.0 | 0.0 | 0.00 | 0.01 | 0.00 | 94 | 1018.0 |
| 20260901064051 | 53 | 0 | 0.0 | 0.0 | 0.00 | 0.01 | 0.00 | 94 | 1018.1 |
| 20260901063550 | 53 | 0 | 0.0 | 0.0 | 0.00 | 0.01 | 0.00 | 94 | 1018.3 |
| 20260901063058 | 53 | 0 | 0.0 | 0.0 | 0.00 | 0.01 | 0.00 | 94 | 1018.5 |
| 20260901062552 | 53 | 0 | 0.0 | 0.0 | 0.00 | 0.01 | 0.00 | 94 | 1018.5 |
| 20260901062053 | 53 | 0 | 0.0 | 0.0 | 0.00 | 0.01 | 0.00 | 94 | 1018.5 |
| 20260901061609 | 53 | 0 | 0.0 | 0.0 | 0.00 | 0.01 | 0.00 | 94 | 1018.4 |
| 20260901061051 | 53 | 0 | 0.0 | 0.0 | 0.00 | 0.01 | 0.00 | 94 | 1018.3 |
| 20260901060551 | 53 | 0 | 0.0 | 0.0 | 0.00 | 0.01 | 0.00 | 94 | 1018.2 |
| 20260901055550 | 53 | 0 | 0.0 | 0.0 | 0.00 | 0.01 | 0.00 | 94 | 1018.4 |
| 20260901055051 | 54 | 0 | 0.0 | 0.0 | 0.00 | 0.01 | 0.00 | 94 | 1018.3 |
| 20260901054609 | 54 | 0 | 0.0 | 0.0 | 0.00 | 0.01 | 0.00 | 94 | 1018.2 |
| 20260901054051 | 54 | 0 | 0.0 | 0.0 | 0.00 | 0.01 | 0.00 | 94 | 1018.3 |
| 20260901053551 | 54 | 0 | 0.0 | 0.0 | 0.00 | 0.01 | 0.00 | 94 | 1018.4 |
| 20260901053116 | 54 | 0 | 0.0 | 0.0 | 0.00 | 0.01 | 0.00 | 94 | 1018.4 |
| 20260901052551 | 54 | 0 | 0.0 | 0.0 | 0.00 | 0.01 | 0.00 | 94 | 1018.5 |
| 20260901052052 | 54 | 0 | 0.0 | 0.0 | 0.00 | 0.01 | 0.00 | 94 | 1018.5 |
| 20260901051606 | 54 | 0 | 0.0 | 0.0 | 0.00 | 0.01 | 0.00 | 94 | 1018.4 |
| 20260901051051 | 54 | 0 | 0.0 | 0.0 | 0.00 | 0.01 | 0.00 | 94 | 1018.5 |
| 20260901050554 | 54 | 0 | 0.0 | 0.0 | 0.00 | 0.01 | 0.00 | 94 | 1018.5 |
| 20260901045552 | 55 | 0 | 0.0 | 0.0 | 0.00 | 0.01 | 0.00 | 94 | 1018.4 |
| 20260901045051 | 55 | 0 | 0.0 | 0.0 | 0.00 | 0.01 | 0.00 | 94 | 1018.5 |
| 20260901044617 | 55 | 0 | 0.0 | 0.0 | 0.00 | 0.01 | 0.00 | 94 | 1018.4 |
| 20260901044055 | 55 | 0 | 0.0 | 0.0 | 0.00 | 0.01 | 0.00 | 94 | 1018.6 |
| 20260901043552 | 55 | 0 | 0.0 | 0.0 | 0.00 | 0.01 | 0.00 | 93 | 1018.4 |
| 20260901043104 | 55 | 0 | 0.0 | 0.0 | 0.00 | 0.01 | 0.00 | 93 | 1018.1 |
| 20260901042547 | 55 | 0 | 0.0 | 0.0 | 0.00 | 0.01 | 0.00 | 93 | 1018.3 |
| 20260901042051 | 55 | 0 | 0.0 | 0.0 | 0.00 | 0.01 | 0.00 | 93 | 1018.0 |
| 20260901041559 | 55 | 0 | 0.0 | 0.0 | 0.00 | 0.01 | 0.00 | 93 | 1018.2 |
| 20260901041055 | 55 | 0 | 0.0 | 0.0 | 0.00 | 0.01 | 0.00 | 93 | 1018.1 |
| 20260901040551 | 55 | 0 | 0.0 | 0.0 | 0.00 | 0.01 | 0.00 | 93 | 1018.1 |
| 20260901040104 | 55 | 0 | 0.0 | 0.0 | 0.00 | 0.01 | 0.00 | 93 | 1018.1 |
| 20260901035553 | 55 | 0 | 0.0 | 0.0 | 0.00 | 0.01 | 0.01 | 93 | 1018.1 |
| 20260901035050 | 55 | 0 | 0.0 | 0.0 | 0.00 | 0.01 | 0.01 | 93 | 1018.1 |
| 20260901034556 | 55 | 0 | 0.0 | 0.0 | 0.00 | 0.01 | 0.01 | 93 | 1018.0 |
| 20260901034050 | 55 | 0 | 0.0 | 0.0 | 0.00 | 0.01 | 0.01 | 93 | 1018.1 |
| 20260901033551 | 55 | 0 | 0.0 | 0.0 | 0.00 | 0.01 | 0.01 | 93 | 1018.0 |
| 20260901033059 | 55 | 0 | 0.0 | 0.0 | 0.00 | 0.01 | 0.01 | 93 | 1018.1 |
| 20260901032551 | 55 | 0 | 0.0 | 0.0 | 0.00 | 0.01 | 0.01 | 93 | 1018.2 |
| 20260901032051 | 56 | 0 | 0.0 | 0.0 | 0.00 | 0.01 | 0.01 | 93 | 1018.2 |
| 20260901031557 | 56 | 0 | 0.0 | 0.0 | 0.00 | 0.01 | 0.01 | 92 | 1018.1 |
| 20260901031051 | 56 | 0 | 0.0 | 0.0 | 0.00 | 0.01 | 0.01 | 92 | 1018.1 |
| 20260901030551 | 56 | 0 | 0.0 | 0.0 | 0.00 | 0.01 | 0.01 | 92 | 1018.0 |
| 20260901030058 | 56 | 0 | 0.0 | 0.0 | 0.00 | 0.01 | 0.01 | 92 | 1018.0 |
| 20260901025551 | 56 | 0 | 0.0 | 0.0 | 0.00 | 0.01 | 0.01 | 92 | 1018.0 |
| 20260901025051 | 56 | 0 | 0.0 | 0.0 | 0.00 | 0.01 | 0.01 | 92 | 1017.9 |
| 20260901024609 | 56 | 0 | 0.0 | 0.0 | 0.00 | 0.01 | 0.01 | 92 | 1018.1 |
| 20260901024051 | 56 | 0 | 0.0 | 0.0 | 0.00 | 0.01 | 0.01 | 91 | 1018.1 |
| 20260901023550 | 56 | 0 | 0.0 | 0.0 | 0.00 | 0.01 | 0.01 | 91 | 1018.0 |
| 20260901023103 | 57 | 0 | 0.0 | 0.0 | 0.00 | 0.01 | 0.01 | 91 | 1018.1 |
| 20260901022551 | 57 | 0 | 0.0 | 0.0 | 0.00 | 0.01 | 0.01 | 91 | 1018.0 |
| 20260901022051 | 57 | 0 | 0.0 | 0.0 | 0.00 | 0.01 | 0.01 | 91 | 1018.0 |
| 20260901021559 | 57 | 0 | 0.0 | 0.0 | 0.00 | 0.01 | 0.01 | 91 | 1018.0 |
| 20260901021055 | 57 | 0 | 0.0 | 0.0 | 0.00 | 0.01 | 0.01 | 91 | 1017.8 |
| 20260901020549 | 57 | 0 | 0.0 | 0.0 | 0.00 | 0.01 | 0.01 | 90 | 1017.9 |
| 20260901020104 | 57 | 0 | 0.0 | 0.0 | 0.00 | 0.01 | 0.01 | 90 | 1017.9 |
| 20260901015553 | 57 | 0 | 0.0 | 0.0 | 0.00 | 0.01 | 0.01 | 90 | 1017.9 |
| 20260901015052 | 57 | 0 | 0.0 | 0.0 | 0.00 | 0.01 | 0.01 | 90 | 1018.0 |
| 20260901014602 | 58 | 0 | 0.0 | 0.0 | 0.00 | 0.01 | 0.01 | 89 | 1017.9 |
| 20260901014052 | 58 | 0 | 0.0 | 0.0 | 0.00 | 0.01 | 0.01 | 89 | 1017.7 |
| 20260901013552 | 58 | 0 | 0.0 | 0.0 | 0.00 | 0.01 | 0.01 | 89 | 1017.8 |
| 20260901013104 | 58 | 0 | 0.0 | 0.0 | 0.00 | 0.01 | 0.01 | 89 | 1017.8 |
| 20260901012551 | 58 | 0 | 0.0 | 0.0 | 0.00 | 0.01 | 0.01 | 89 | 1017.9 |
| 20260901012056 | 58 | 0 | 0.0 | 0.0 | 0.00 | 0.01 | 0.01 | 88 | 1017.8 |
| 20260901011606 | 58 | 0 | 0.0 | 0.0 | 0.00 | 0.01 | 0.01 | 88 | 1017.8 |
| 20260901011052 | 58 | 0 | 0.0 | 0.0 | 0.00 | 0.01 | 0.01 | 88 | 1017.8 |
| 20260901010552 | 59 | 0 | 0.0 | 0.0 | 0.00 | 0.01 | 0.01 | 88 | 1017.9 |
| 20260901005552 | 59 | 0 | 0.0 | 0.0 | 0.00 | 0.09 | 0.01 | 86 | 1017.8 |
| 20260901005051 | 59 | 0 | 0.0 | 0.0 | 0.00 | 0.09 | 0.01 | 86 | 1017.9 |
| 20260901004604 | 60 | 0 | 0.0 | 0.0 | 0.00 | 0.09 | 0.01 | 86 | 1017.8 |
| 20260901004052 | 60 | 0 | 0.0 | 0.0 | 0.00 | 0.09 | 0.01 | 85 | 1017.8 |
| 20260901003552 | 60 | 0 | 0.0 | 0.0 | 0.00 | 0.09 | 0.01 | 85 | 1017.6 |
| 20260901003105 | 60 | 0 | 0.0 | 0.0 | 0.00 | 0.09 | 0.01 | 85 | 1017.6 |
| 20260901002551 | 61 | 0 | 0.0 | 0.0 | 0.00 | 0.09 | 0.01 | 84 | 1017.4 |
| 20260901002055 | 61 | 0 | 0.0 | 0.0 | 0.00 | 0.09 | 0.01 | 84 | 1017.5 |
| 20260901001558 | 61 | 0 | 0.0 | 0.0 | 0.00 | 0.09 | 0.01 | 85 | 1017.5 |
| 20260901001053 | 62 | 0 | 0.0 | 0.0 | 0.00 | 0.09 | 0.01 | 83 | 1017.6 |
| 20260901000552 | 62 | 0 | 0.0 | 0.0 | 0.00 | 0.09 | 0.01 | 83 | 1017.6 |
| 20260901000103 | 62 | 0 | 0.0 | 0.0 | 0.00 | 0.09 | 0.01 | 83 | 1017.5 |
| 20260831235552 | 63 | 0 | 0.0 | 0.0 | 0.00 | 0.09 | 0.01 | 82 | 1017.7 |
| 20260831235052 | 63 | 0 | 0.0 | 0.0 | 0.00 | 0.09 | 0.01 | 82 | 1017.5 |
| 20260831234558 | 63 | 0 | 0.0 | 0.0 | 0.00 | 0.09 | 0.01 | 81 | 1017.5 |
| 20260831234052 | 64 | 0 | 0.0 | 0.0 | 0.00 | 0.09 | 0.01 | 81 | 1017.6 |
| 20260831233553 | 64 | 0 | 0.0 | 3.0 | 0.00 | 0.09 | 0.01 | 81 | 1017.4 |
| 20260831233058 | 64 | 0 | 0.0 | 3.0 | 0.00 | 0.09 | 0.01 | 80 | 1017.5 |
| 20260831232555 | 65 | 0 | 0.0 | 3.0 | 0.00 | 0.09 | 0.01 | 79 | 1017.5 |
| 20260831232053 | 65 | 0 | 0.0 | 4.0 | 0.00 | 0.09 | 0.01 | 79 | 1017.6 |
| 20260831231603 | 65 | 0 | 0.0 | 4.0 | 0.00 | 0.09 | 0.01 | 78 | 1017.6 |
| 20260831231052 | 66 | 0 | 0.0 | 4.0 | 0.00 | 0.09 | 0.01 | 76 | 1017.7 |
| 20260831230552 | 66 | 0 | 0.0 | 0.0 | 0.00 | 0.09 | 0.01 | 76 | 1017.8 |
| 20260831225551 | 67 | 0 | 0.0 | 0.0 | 0.00 | 0.09 | 0.01 | 73 | 1017.8 |
| 20260831225051 | 68 | 0 | 0.0 | 0.0 | 0.00 | 0.09 | 0.01 | 72 | 1017.8 |
| 20260831224604 | 69 | 0 | 0.0 | 0.0 | 0.00 | 0.09 | 0.01 | 71 | 1017.8 |
| 20260831224050 | 70 | 0 | 0.0 | 0.0 | 0.00 | 0.09 | 0.01 | 68 | 1017.6 |
| 20260831223547 | 71 | 0 | 0.0 | 0.0 | 0.00 | 0.09 | 0.01 | 68 | 1017.5 |
| 20260831223102 | 71 | 0 | 0.0 | 0.0 | 0.00 | 0.09 | 0.01 | 65 | 1017.8 |
| 20260831222549 | 72 | 0 | 0.0 | 0.0 | 0.00 | 0.09 | 0.01 | 62 | 1017.8 |
| 20260831222050 | 73 | 0 | 0.0 | 0.0 | 0.00 | 0.09 | 0.01 | 60 | 1017.8 |
| 20260831221604 | 74 | 0 | 0.0 | 0.0 | 0.00 | 0.09 | 0.01 | 58 | 1017.7 |
| 20260831221051 | 75 | 0 | 0.0 | 0.0 | 0.00 | 0.09 | 0.01 | 54 | 1017.8 |
| 20260831220552 | 75 | 0 | 0.0 | 0.0 | 0.00 | 0.09 | 0.01 | 50 | 1017.9 |
| 20260831220111 | 75 | 0 | 0.0 | 0.0 | 0.00 | 0.09 | 0.01 | 50 | 1017.8 |
| 20260831215551 | 75 | 0 | 0.0 | 3.0 | 0.00 | 0.09 | 0.01 | 49 | 1017.8 |
| 20260831215051 | 76 | 0 | 0.0 | 3.0 | 0.00 | 0.09 | 0.01 | 50 | 1017.8 |
| 20260831214625 | 76 | 0 | 0.0 | 4.0 | 0.00 | 0.09 | 0.01 | 47 | 1017.8 |
| 20260831214050 | 76 | 0 | 1.0 | 4.0 | 0.00 | 0.09 | 0.01 | 47 | 1017.8 |
| 20260831213550 | 77 | 0 | 0.0 | 5.0 | 0.00 | 0.09 | 0.01 | 47 | 1017.7 |
| 20260831213059 | 77 | 0 | 0.0 | 6.0 | 0.00 | 0.09 | 0.01 | 46 | 1017.6 |
| 20260831212550 | 77 | 0 | 0.0 | 6.0 | 0.00 | 0.09 | 0.01 | 46 | 1017.7 |
| 20260831212047 | 77 | 0 | 0.0 | 8.0 | 0.00 | 0.09 | 0.01 | 45 | 1017.6 |
| 20260831211602 | 77 | 0 | 0.0 | 8.0 | 0.00 | 0.09 | 0.01 | 46 | 1017.6 |
| 20260831211054 | 77 | 0 | 0.0 | 7.0 | 0.00 | 0.09 | 0.01 | 46 | 1017.6 |
| 20260831210550 | 77 | 0 | 0.0 | 7.0 | 0.00 | 0.09 | 0.01 | 46 | 1017.6 |
| 20260831205551 | 77 | 0 | 0.0 | 6.0 | 0.00 | 0.09 | 0.01 | 45 | 1017.7 |
| 20260831205051 | 77 | 0 | 0.0 | 7.0 | 0.00 | 0.09 | 0.01 | 44 | 1017.8 |
| 20260831204604 | 77 | 0 | 0.0 | 7.0 | 0.00 | 0.09 | 0.01 | 46 | 1017.9 |
| 20260831204051 | 78 | 0 | 0.0 | 6.0 | 0.00 | 0.09 | 0.01 | 42 | 1018.0 |
| 20260831203549 | 78 | 0 | 1.0 | 8.0 | 0.00 | 0.09 | 0.01 | 42 | 1018.1 |
| 20260831203059 | 78 | 0 | 1.0 | 8.0 | 0.00 | 0.09 | 0.01 | 44 | 1018.1 |
| 20260831202551 | 78 | 0 | 0.0 | 9.0 | 0.00 | 0.09 | 0.01 | 42 | 1018.1 |
| 20260831202051 | 77 | 0 | 1.0 | 9.0 | 0.00 | 0.09 | 0.01 | 43 | 1018.0 |
| 20260831201604 | 77 | 0 | 0.0 | 8.0 | 0.00 | 0.09 | 0.01 | 42 | 1018.2 |
| 20260831201047 | 77 | 359 | 0.0 | 8.0 | 0.00 | 0.09 | 0.01 | 40 | 1018.4 |
| 20260831200552 | 77 | 0 | 1.0 | 9.0 | 0.00 | 0.09 | 0.01 | 41 | 1018.3 |
| 20260831200112 | 77 | 0 | 1.0 | 9.0 | 0.00 | 0.09 | 0.01 | 42 | 1018.4 |
| 20260831195551 | 77 | 261 | 0.0 | 8.0 | 0.00 | 0.09 | 0.01 | 44 | 1018.3 |
| 20260831195051 | 77 | 0 | 0.0 | 8.0 | 0.00 | 0.09 | 0.01 | 45 | 1018.3 |
| 20260831194805 | 78 | 298 | 0.0 | 8.0 | 0.00 | 0.09 | 0.01 | 45 | 1018.5 |
| 20260831192552 | 78 | 278 | 2.0 | 9.0 | 0.00 | 0.09 | 0.01 | 38 | 1018.4 |
| 20260831192051 | 78 | 0 | 1.0 | 9.0 | 0.00 | 0.09 | 0.01 | 33 | 1018.7 |
| 20260831191602 | 78 | 0 | 0.0 | 5.0 | 0.00 | 0.09 | 0.01 | 40 | 1018.5 |
| 20260831191052 | 78 | 205 | 0.0 | 7.0 | 0.00 | 0.09 | 0.01 | 40 | 1018.4 |
| 20260831190552 | 77 | 0 | 0.0 | 8.0 | 0.00 | 0.09 | 0.01 | 38 | 1018.3 |